Voltar ao catálogo

STARLINK-36607

AtivoComunicaçõesVLEO
NORAD 67620·PAYLOAD·🇺🇸 United States

Lançado Jan 30, 2026 de Cape Canaveral Space Force Station

Loading…

Próximas Passagens (próximas 24 horas)

TLE

AtualizadoSource: CelesTrak SupGP

Época: Sep 15, 2026, 03:12 UTC

1 67620C 26020D   26258.13381944  .00051275  00000+0  18570-2 0  2587
2 67620  43.0022 149.5539 0001296 273.5389 336.4987 15.27556093    19

Acompanhe STARLINK-36607 em tempo real com AllMySat

Download on the App Store